Hourly Data Report for September 12, 2017

All times are specified in Local Standard Time (LST). Add 1 hour to adjust for Daylight Saving Time where and when it is observed.

ST. PETERS
PRINCE EDWARD ISLAND

46°27'01.000" N
62°34'33.000" W
29.70 m
8300562
71310
ZSP

Download Data

Hourly Data (September 2017)
Hourly Data Report for September 12, 2017
Temp Definition
°C
Dew Point Temp Definition
°C
Rel Hum Definition
%
Wind Dir Definition
10's deg

Wind Spd Definition
km/h
Visibility Definition
km
Stn Press Definition
kPa
Hmdx Definition


Wind Chill Definition


Weather Definition


TIME
00:00 14.3 11.3 82 1 24   100.80     LegendNANA
01:00 14.4 11.2 81 1 22   100.83     LegendNANA
02:00 14.2 10.9 81 36 26   100.78     LegendNANA
03:00 14.0 10.6 80 1 23   100.75     LegendNANA
04:00 13.9 10.4 80 1 24   100.72     LegendNANA
05:00 13.7 10.2 79 1 19   100.70     LegendNANA
06:00 13.7 10.4 80 1 18   100.70     LegendNANA
07:00 13.7 10.0 78 1 15   100.73     LegendNANA
08:00 13.9 9.9 77 1 16   100.72     LegendNANA
09:00 14.6 10.2 75 36 16   100.71     LegendNANA
10:00 14.9 9.9 72 35 17   100.68     LegendNANA
11:00 14.8 9.9 73 35 16   100.66     LegendNANA
12:00 15.3 10.4 73 36 16   100.57     LegendNANA
13:00 15.2 10.1 72 34 14   100.54     LegendNANA
14:00 15.2 10.5 74 34 12   100.50     LegendNANA
15:00 15.1 9.7 70 34 11   100.40     LegendNANA
16:00 14.9 9.8 72 34 13   100.41     LegendNANA
17:00 14.4 9.6 73 33 11   100.35     LegendNANA
18:00 13.2 8.9 76 35 8   100.33     LegendNANA
19:00 12.4 8.7 78 36 3   100.35     LegendNANA
20:00 10.5 8.2 86 3 4   100.33     LegendNANA
21:00 9.5 8.3 92 21 4   100.30     LegendNANA
22:00 9.3 8.3 93 19 2   100.25     LegendNANA
23:00 9.6 8.7 94 24 6   100.22     LegendNANA

Notes on Data Quality.

Legend

  • E = Estimated
  • M = Missing
  • NA = Not Available
  • ‡ = Partner data that is not subject to review by the National Climate Archives
Date modified: